This demonstration page uses our WeatherBlox Daily Observations layout. Learn more.

40.92945, -100.16068

Hourly Observations for December 9, 2019

Temp ( °F °C ) Dew Point ( °F °C ) Humidity (%) Winds ( mph kmh ) Pressure ( in mb ) Visibility ( mi km ) Precip ( " mm )
12:15 am 00:15 Cloudy 38 3.5 34 1.1 84 84 NW 5 7 29.65 1004 10 16.0934 0 0
12:35 am 00:35 Cloudy 37 3 34 1.1 87 87 NW 10 17 29.67 1005 10 16.0934 0 0
12:55 am 00:55 Cloudy 38 3.3 34 1.2 86 86 NW 10 17 29.68 1005 10 16.0934 0 0
1:15 am 01:15 Mostly Cloudy 38 3.6 33 0.7 82 82 N 28 44 29.72 1006 10 16.0934 0 0
1:35 am 01:35 Mostly Cloudy 33 0.7 31 -0.6 91 91 NNW 26 43 29.8 1009 10 16.0934 0 0
1:55 am 01:55 Cloudy 33 0.5 30 -1.3 88 88 N 28 44 29.79 1009 10 16.0934 0 0
2:15 am 02:15 Cloudy 32 -0.1 26 -3.5 78 78 N 35 56 29.84 1010 10 16.0934 0 0
2:35 am 02:35 Mostly Cloudy 30 -1 25 -4.1 80 80 N 26 43 29.87 1011 10 16.0934 0 0
2:55 am 02:55 Cloudy 28 -2.4 22 -5.6 79 79 N 31 50 29.89 1012 10 16.0934 0 0
3:15 am 03:15 Cloudy 26 -3.4 20 -6.4 80 80 NNW 28 44 29.91 1013 10 16.0934 0 0
3:35 am 03:35 Windy with Snow Likely 25 -3.9 20 -6.9 80 80 NNW 31 50 29.94 1014 10 16.0934 0 0
3:55 am 03:55 Cloudy 25 -4.1 20 -6.7 82 82 N 18 30 29.94 1014 10 16.0934 0 0
4:15 am 04:15 Windy with Snow Likely 24 -4.4 19 -7 82 82 N 25 41 29.96 1015 5 8.0467 0 0
4:35 am 04:35 Windy with Snow Likely 23 -5 18 -7.9 80 80 NNW 35 56 29.98 1015 7 11.26538 0 0
4:55 am 04:55 Cloudy 23 -5.2 16 -8.8 76 76 NNW 35 56 30 1016 10 16.0934 0 0
5:15 am 05:15 Cloudy 22 -5.7 16 -9.1 77 77 NNW 21 33 30.02 1017 10 16.0934 0 0
5:35 am 05:35 Mostly Cloudy 20 -6.5 13 -10.6 73 73 NNW 29 46 30.05 1018 10 16.0934 0 0
5:55 am 05:55 Partly Cloudy 19 -7.1 13 -10.5 77 77 NW 24 39 30.06 1018 10 16.0934 0 0
6:15 am 06:15 Partly Cloudy 18 -8 10 -12 73 73 NNW 29 46 30.08 1019 10 16.0934 0 0
6:35 am 06:35 Partly Cloudy 17 -8.1 11 -11.8 75 75 NNW 21 33 30.1 1019 10 16.0934 0 0
6:55 am 06:55 Clear 17 -8.5 10 -12.1 76 76 NNW 24 39 30.1 1019 10 16.0934 0 0
7:15 am 07:15 Clear 16 -8.7 10 -12.5 74 74 NNW 25 41 30.13 1020 10 16.0934 0 0
7:35 am 07:35 Clear 16 -9.1 9 -12.8 75 75 NNW 22 35 30.14 1021 10 16.0934 0 0
7:55 am 07:55 Sunny 15 -9.3 9 -13 75 75 NNW 17 28 30.15 1021 10 16.0934 0 0
8:15 am 08:15 Sunny 15 -9.5 9 -13 76 76 NNW 21 33 30.15 1021 10 16.0934 0 0
8:35 am 08:35 Sunny 15 -9.3 8 -13.5 72 72 NNW 23 37 30.16 1021 10 16.0934 0 0
8:55 am 08:55 Sunny 15 -9.2 8 -13.5 71 71 NNW 25 41 30.17 1022 10 16.0934 0 0
9:15 am 09:15 Sunny 16 -8.8 8 -13.2 71 71 NNW 23 37 30.19 1022 10 16.0934 0 0
9:35 am 09:35 Sunny 17 -8.4 9 -12.9 70 70 NNW 23 37 30.19 1022 10 16.0934 0 0
9:55 am 09:55 Sunny 17 -8.1 9 -12.9 69 69 NNW 26 43 30.2 1023 10 16.0934 0 0
10:15 am 10:15 Sunny 18 -7.8 9 -12.7 68 68 NNW 28 44 30.2 1023 10 16.0934 0 0
10:35 am 10:35 Sunny 19 -7.4 10 -12.4 68 68 NNW 26 43 30.19 1022 10 16.0934 0 0
10:55 am 10:55 Sunny 19 -7 10 -12 68 68 NNW 20 31 30.2 1023 10 16.0934 0 0
11:15 am 11:15 Sunny 20 -6.5 11 -11.7 67 67 NNW 17 28 30.17 1022 10 16.0934 0 0
11:35 am 11:35 Sunny 21 -6 12 -11.3 66 66 NNW 23 37 30.18 1022 10 16.0934 0 0
11:55 am 11:55 Sunny 22 -5.7 12 -11.1 66 66 NNW 21 33 30.16 1021 10 16.0934 0 0
12:15 pm 12:15 Sunny 23 -5 13 -10.6 65 65 NW 21 33 30.17 1022 10 16.0934 0 0
12:35 pm 12:35 Sunny 23 -5 13 -10.7 65 65 NW 18 30 30.17 1022 10 16.0934 0 0
12:55 pm 12:55 Sunny 24 -4.5 13 -10.5 63 63 NW 18 30 30.15 1021 10 16.0934 0 0
1:15 pm 13:15 Sunny 25 -3.9 13 -10.3 61 61 NW 18 30 30.15 1021 10 16.0934 0 0
1:35 pm 13:35 Sunny 26 -3.6 14 -10.2 61 61 NW 18 30 30.13 1020 10 16.0934 0 0
1:55 pm 13:55 Sunny 26 -3.1 13 -10.4 57 57 NW 21 33 30.13 1020 10 16.0934 0 0
2:15 pm 14:15 Sunny 27 -2.9 13 -10.4 57 57 WNW 18 30 30.13 1020 10 16.0934 0 0
2:35 pm 14:35 Sunny 28 -2.5 13 -10.7 54 54 NW 18 30 30.11 1020 10 16.0934 0 0
2:55 pm 14:55 Sunny 29 -1.8 13 -10.6 51 51 WNW 15 24 30.12 1020 10 16.0934 0 0
3:15 pm 15:15 Sunny 29 -1.5 13 -10.6 50 50 WNW 14 22 30.11 1020 10 16.0934 0 0
3:35 pm 15:35 Sunny 30 -1.3 13 -10.5 50 50 NW 14 22 30.11 1020 10 16.0934 0 0
3:55 pm 15:55 Sunny 29 -1.7 12 -11 49 49 NW 10 17 30.11 1020 10 16.0934 0 0
4:15 pm 16:15 Sunny 30 -1.2 13 -10.8 48 48 WNW 10 17 30.11 1020 10 16.0934 0 0
4:35 pm 16:35 Sunny 29 -1.7 13 -10.5 51 51 WNW 8 13 30.11 1020 10 16.0934 0 0
4:55 pm 16:55 Sunny 28 -2.2 15 -9.4 58 58 W 7 11 30.12 1020 10 16.0934 0 0
5:15 pm 17:15 Clear 26 -3.2 14 -10 60 60 W 7 11 30.14 1021 10 16.0934 0 0
5:35 pm 17:35 Clear 26 -3.3 14 -10 60 60 W 5 7 30.14 1021 10 16.0934 0 0
5:55 pm 17:55 Clear 24 -4.2 16 -9 70 70 WSW 7 11 30.15 1021 10 16.0934 0 0
6:15 pm 18:15 Clear 23 -4.8 15 -9.5 70 70 SW 7 11 30.16 1021 10 16.0934 0 0
6:35 pm 18:35 Clear 22 -5.5 15 -9.7 73 73 WSW 6 9 30.17 1022 10 16.0934 0 0
6:55 pm 18:55 Clear 23 -4.8 14 -9.8 68 68 WSW 6 9 30.17 1022 10 16.0934 0 0
7:15 pm 19:15 Clear 24 -4.7 15 -9.5 69 69 WSW 7 11 30.16 1021 10 16.0934 0 0
7:35 pm 19:35 Clear 26 -3.6 15 -9.2 66 66 WSW 8 13 30.14 1021 10 16.0934 0 0
7:55 pm 19:55 Clear 26 -3.1 15 -9.4 62 62 WSW 12 19 30.15 1021 10 16.0934 0 0
8:15 pm 20:15 Clear 26 -3.3 15 -9.5 63 63 WSW 10 17 30.15 1021 10 16.0934 0 0
8:35 pm 20:35 Clear 26 -3.1 15 -9.5 62 62 WSW 9 15 30.15 1021 10 16.0934 0 0
8:55 pm 20:55 Clear 25 -3.9 16 -9.1 68 68 WSW 8 13 30.16 1021 10 16.0934 0 0
9:15 pm 21:15 Clear 24 -4.5 16 -9.1 71 71 WSW 6 9 30.16 1021 10 16.0934 0 0
9:35 pm 21:35 Clear 23 -5.1 15 -9.4 72 72 WSW 7 11 30.17 1022 10 16.0934 0 0
9:55 pm 21:55 Clear 23 -5 16 -9.1 73 73 W 6 9 30.17 1022 10 16.0934 0 0
10:15 pm 22:15 Clear 22 -5.8 16 -8.9 79 79 W 6 9 30.19 1022 10 16.0934 0 0
10:35 pm 22:35 Clear 22 -5.6 16 -8.7 79 79 W 7 11 30.18 1022 10 16.0934 0 0
10:55 pm 22:55 Partly Cloudy 24 -4.7 18 -8 78 78 W 8 13 30.17 1022 10 16.0934 0 0
11:15 pm 23:15 Partly Cloudy 24 -4.5 18 -7.6 79 79 W 8 13 30.17 1022 10 16.0934 0 0
11:35 pm 23:35 Partly Cloudy 24 -4.2 19 -7.3 79 79 W 8 13 30.18 1022 10 16.0934 0 0
11:55 pm 23:55 Partly Cloudy 25 -4 19 -7.2 79 79 W 9 15 30.18 1022 10 16.0934 0 0

Powered by AerisWeather